Regional Weather Roundup
Issued by NWS

Home | Current Version | Previous Version | Graphics & Text | Print | Product List | Glossary On
Versions: 1 2 3 4 5 6 7 8 9 10 11 12 13 14 15 16 17 18 19 20 21 22 23 24 25 26 27 28 29 30 31 32 33 34 35 36 37 38 39 40 41 42 43 44 45 46 47 48 49 50
000
ASUS43 KOAX 221902
RWRNE

WEATHER ROUNDUP FOR NEBRASKA
NATIONAL WEATHER SERVICE OMAHA NE
200 PM CDT SAT APR 22 2017

NOTES: SATELLITE DATA IS BEING USED TO AUGMENT CLOUD COVER ABOVE
       12000 FEET.
       "FAIR" INDICATES FEW OR NO CLOUDS BELOW 12,000 FEET WITH NO
       SIGNIFICANT WEATHER AND/OR OBSTRUCTIONS TO VISIBILITY.

  * THESE STATIONS DO NOT REPORT WEATHER SUCH AS RAIN...SNOW OR FOG.

NEZ001>004-019>022-054>056-222000-
NEBRASKA PANHANDLE

CITY           SKY/WX    TMP DP  RH WIND       PRES   REMARKS
SCOTTSBLUFF    CLOUDY    57  34  41 SW6       30.25F
ALLIANCE       MOSUNNY   57  31  37 SW9       30.25F
CHADRON        MOSUNNY   61  34  36 S10G17    30.23F
KIMBALL        PTSUNNY   53  35  51 CALM      30.28F
SIDNEY         PTSUNNY   51  35  54 SW7       30.29F
$$

NEZ057>060-069>072-079>082-222000-
SOUTHWEST NEBRASKA

CITY           SKY/WX    TMP DP  RH WIND       PRES   REMARKS
NORTH PLATTE   SUNNY     59  30  33 VRB6      30.28F
IMPERIAL       SUNNY     56  33  42 VRB5      30.30F
LEXINGTON      PTSUNNY   58  32  38 NE5       30.27F
MCCOOK         MOSUNNY   58  32  37 CALM      30.28F
OGALLALA       MOSUNNY   58  30  33 N3        30.28F
$$

NEZ005>010-023>029-035>040-094-222000-
NORTH CENTRAL NEBRASKA

CITY           SKY/WX    TMP DP  RH WIND       PRES   REMARKS
VALENTINE      SUNNY     62  27  26 CALM      30.26F
AINSWORTH      SUNNY     59  37  43 S5        30.27F
BROKEN BOW     SUNNY     60  32  34 N7        30.27F
O`NEILL        SUNNY     60  30  32 CALM      30.27F
ORD            SUNNY     60  31  33 VRB3      30.26F
THEDFORD       SUNNY     61  32  34 N7        30.27F
$$

NEZ041-046>049-061>064-073>077-083>087-222000-
SOUTH CENTRAL NEBRASKA

CITY           SKY/WX    TMP DP  RH WIND       PRES   REMARKS
GRAND ISLAND   MOSUNNY   61  32  33 N8        30.27F
AURORA         MOSUNNY   61  30  30 CALM      30.26F
HASTINGS       MOSUNNY   60  31  33 N12       30.27F
HEBRON         MOSUNNY   62  28  27 N9        30.24F
HOLDREGE       SUNNY     58  28  32 N5        30.27F
KEARNEY *      MOSUNNY   61  28  29 N5G16     30.27F
YORK           MOSUNNY   63  32  31 N10G16    30.26F
$$

NEZ011>018-030>034-042>045-222000-
NORTHEAST NEBRASKA

CITY           SKY/WX    TMP DP  RH WIND       PRES   REMARKS
NORFOLK        SUNNY     62  32  32 MISG      30.25F
ALBION         SUNNY     61  31  32 S3        30.27F
BLAIR          MOSUNNY   63  35  34 N10G16    30.24F
FREMONT        SUNNY     62  31  30 N8        30.26F
TEKAMAH        SUNNY     64  35  34 N8        30.24F
WAYNE          SUNNY     62  32  33 NW3       30.26F
$$

NEZ050>053-065>068-078-088>093-222000-
SOUTHEAST NEBRASKA

CITY           SKY/WX    TMP DP  RH WIND       PRES   REMARKS
LINCOLN        SUNNY     64  32  30 N10       30.25F
OMAHA EPPLEY   PTSUNNY   65  30  27 NE10      30.23F
BEATRICE       MOSUNNY   64  36  34 NE10G21   30.22F
FALLS CITY     SUNNY     61  37  41 NE12G20   30.18F
NEBRASKA CITY  MOSUNNY   63  22  20 NE14G29   30.22F
PLATTSMOUTH    MOSUNNY   65  22  19 NE13      30.22F
$$

NEZ044-045-051>053-067-222000-
OMAHA AREA

CITY           SKY/WX    TMP DP  RH WIND       PRES   REMARKS
OMAHA EPPLEY   PTSUNNY   65  30  27 NE10      30.23F
BLAIR          MOSUNNY   63  35  34 N10G16    30.24F
FREMONT        SUNNY     62  31  30 N8        30.26F
MILLARD        MOSUNNY   64  32  30 NE7       30.24F
OFFUTT AFB     MOSUNNY   63  30  29 N8        30.22F
PLATTSMOUTH    MOSUNNY   65  22  19 NE13      30.22F
WAHOO          FAIR      61  29  30 CALM      30.25F
$$




USA.gov is the U.S. government's official web portal to all federal, state and local government web resources and services.